Location: Caltech
(34.1382°N, 118.1253°W)
Time: 17:18:06
(UTC-07:00)

Iridium 62 - Visible Passes

Search period start: 06 July 2015 00:00
Search period end: 16 July 2015 00:00
Orbit: 776 x 779 km, 86.4° (Epoch: 06 July)

Date Brightness Start Highest point End Pass type
(mag) Time Alt. Az. Time Alt. Az. Time Alt. Az.
06 Jul 6.7 04:02:19 10° N 04:07:22 50° E 04:12:25 10° SSE visible
07 Jul 7.8 03:29:23 10° NNE 03:33:40 26° E 03:38:01 10° SE visible
07 Jul 6.8 05:09:55 10° NNW 05:14:23 28° W 05:18:43 10° SW visible
08 Jul 8.5 02:57:25 10° NE 02:59:46 13° ENE 03:02:25 10° ESE visible
08 Jul 6.0 04:35:53 10° NNW 04:40:59 55° W 04:46:03 10° SSW visible
09 Jul 5.9 04:02:16 10° N 04:07:30 76° E 04:12:24 12° S visible
10 Jul 7.1 03:29:04 10° NNE 03:33:53 38° E 03:38:22 12° SSE visible
10 Jul 7.3 05:10:38 10° NW 05:14:22 19° W 05:17:53 10° SW visible
11 Jul 8.0 02:56:24 10° NNE 03:00:06 20° ENE 03:03:59 10° SE visible
11 Jul 6.4 04:36:14 10° NNW 04:41:00 37° W 04:44:47 15° SSW visible
12 Jul 5.7 04:02:22 10° N 04:07:35 73° W 04:10:49 23° S visible
13 Jul 6.3 03:28:55 10° N 03:34:03 58° E 03:36:53 26° SSE visible
13 Jul 7.7 05:11:56 10° NW 05:14:20 13° W 05:16:23 10° WSW visible
14 Jul 7.4 02:55:53 10° NNE 03:00:22 30° E 03:02:58 20° SE visible
14 Jul 7.0 04:36:46 10° NNW 04:41:00 25° W 04:43:24 18° WSW visible
15 Jul 8.2 02:23:36 10° NE 02:26:32 16° ENE 02:29:05 12° ESE visible
15 Jul 6.1 04:02:37 10° NNW 04:07:38 48° W 04:09:31 33° SW visible
